GW4987 Weather Reports


time (UTC)temp
C
wind
direction
speed
KPH
gust
KPH
rain 1hr
cm
rain 24hr
cm
rain mn
cm
humidity
%
barometer
mb
20260904235004 25 214 24.1 46.7 0.00 0.00 0.00 42 1020.3
20260904234504 26 199 25.7 46.7 0.00 0.00 0.00 40 1020.2
20260904234004 26 205 16.1 24.1 0.00 0.00 0.00 41 1020.3
20260904233504 26 239 20.9 29.0 0.00 0.00 0.00 41 1020.3
20260904233004 25 241 16.1 27.4 0.00 0.00 0.00 41 1020.5
20260904232504 25 205 24.1 35.4 0.00 0.00 0.00 42 1020.2
20260904232004 25 220 20.9 29.0 0.00 0.00 0.00 43 1020.5
20260904231504 25 191 14.5 38.6 0.00 0.00 0.00 43 1020.3
20260904231003 26 220 20.9 33.8 0.00 0.00 0.00 40 1020.5
20260904230503 25 188 6.4 27.4 0.00 0.00 0.00 41 1020.3
20260904230004 25 210 8.0 27.4 0.00 0.00 0.00 41 1020.4
20260904225504 25 213 20.9 40.2 0.00 0.00 0.00 41 1020.4
20260904225004 26 275 37.0 38.6 0.00 0.00 0.00 40 1020.5
20260904224504 26 187 14.5 40.2 0.00 0.00 0.00 41 1020.5
20260904224003 26 207 17.7 33.8 0.00 0.00 0.00 40 1020.4
20260904223503 26 212 19.3 32.2 0.00 0.00 0.00 40 1020.5
20260904223004 25 207 19.3 35.4 0.00 0.00 0.00 40 1020.6
20260904222504 26 220 16.1 33.8 0.00 0.00 0.00 39 1020.6
20260904222004 26 258 12.9 20.9 0.00 0.00 0.00 38 1020.4
20260904221503 26 214 14.5 24.1 0.00 0.00 0.00 40 1020.7
20260904221003 26 200 16.1 25.7 0.00 0.00 0.00 41 1020.6
20260904220503 26 183 17.7 24.1 0.00 0.00 0.00 40 1020.6
20260904220003 26 187 8.0 24.1 0.00 0.00 0.00 40 1020.7
20260904215503 26 231 14.5 32.2 0.00 0.00 0.00 41 1020.8
20260904215003 26 253 16.1 24.1 0.00 0.00 0.00 41 1020.8
20260904211503 24 164 16.1 38.6 0.00 0.00 0.00 44 1021.1
20260904211003 24 247 20.9 43.5 0.00 0.00 0.00 45 1020.9
20260904210503 25 223 24.1 27.4 0.00 0.00 0.00 45 1021.1
20260904210004 25 197 11.3 27.4 0.00 0.00 0.00 44 1021.3
20260904205503 25 170 12.9 32.2 0.00 0.00 0.00 42 1021.1
20260904205004 24 205 25.7 38.6 0.00 0.00 0.00 45 1021.3
20260904204503 25 226 17.7 29.0 0.00 0.00 0.00 42 1021.0
20260904204003 24 186 22.5 22.5 0.00 0.00 0.00 47 1021.0
20260904203504 25 141 12.9 30.6 0.00 0.00 0.00 46 1021.3
20260904203004 24 173 20.9 33.8 0.00 0.00 0.00 47 1021.5
20260904202504 23 169 16.1 27.4 0.00 0.00 0.00 49 1021.5
20260904202004 23 200 8.0 33.8 0.00 0.00 0.00 49 1021.0
20260904201503 24 189 19.3 32.2 0.00 0.00 0.00 46 1021.3
20260904201003 24 145 11.3 24.1 0.00 0.00 0.00 49 1021.1
20260904200504 25 189 14.5 48.3 0.00 0.00 0.00 47 1021.5
20260904200004 24 188 14.5 16.1 0.00 0.00 0.00 49 1021.6
20260904195503 23 200 22.5 29.0 0.00 0.00 0.00 50 1021.5
20260904195004 24 190 16.1 27.4 0.00 0.00 0.00 47 1021.7
20260904194503 25 211 14.5 38.6 0.00 0.00 0.00 48 1021.5
20260904194003 25 161 9.7 35.4 0.00 0.00 0.00 46 1021.6
20260904193504 24 197 16.1 24.1 0.00 0.00 0.00 49 1021.9
20260904193004 25 160 20.9 30.6 0.00 0.00 0.00 48 1021.7
20260904192504 25 167 8.0 24.1 0.00 0.00 0.00 49 1021.6
20260904192004 25 208 16.1 33.8 0.00 0.00 0.00 47 1021.4
20260904191503 25 196 14.5 25.7 0.00 0.00 0.00 47 1021.6
20260904191004 24 156 4.8 38.6 0.00 0.00 0.00 49 1021.9
20260904190503 25 185 9.7 24.1 0.00 0.00 0.00 50 1021.8
20260904190003 24 163 17.7 30.6 0.00 0.00 0.00 50 1021.7
20260904185503 24 212 20.9 35.4 0.00 0.00 0.00 50 1021.7
20260904185004 24 155 8.0 25.7 0.00 0.00 0.00 52 1021.8
20260904184503 24 177 9.7 33.8 0.00 0.00 0.00 52 1022.0
20260904184003 24 163 16.1 41.8 0.00 0.00 0.00 51 1021.9
20260904183504 23 167 12.9 25.7 0.00 0.00 0.00 53 1021.9
20260904183004 22 250 17.7 29.0 0.00 0.00 0.00 56 1022.2
20260904182503 23 203 12.9 27.4 0.00 0.00 0.00 54 1022.0
20260904182004 23 209 22.5 35.4 0.00 0.00 0.00 49 1022.2
20260904180003 23 160 14.5 22.5 0.00 0.00 0.00 56 1022.1
20260904175503 23 205 14.5 25.7 0.00 0.00 0.00 51 1022.3
20260904175003 24 211 16.1 30.6 0.00 0.00 0.00 52 1022.2
20260904174503 23 176 27.4 38.6 0.00 0.00 0.00 52 1022.3
20260904174003 23 211 20.9 32.2 0.00 0.00 0.00 53 1022.2
20260904173504 24 116 14.5 29.0 0.00 0.00 0.00 53 1022.2
20260904173004 23 177 12.9 24.1 0.00 0.00 0.00 56 1022.1
20260904172504 23 159 16.1 35.4 0.00 0.00 0.00 55 1022.2
20260904172003 23 221 17.7 32.2 0.00 0.00 0.00 57 1022.1
20260904171503 23 176 12.9 27.4 0.00 0.00 0.00 55 1022.0
20260904171004 23 211 12.9 24.1 0.00 0.00 0.00 58 1022.2
20260904170504 22 224 17.7 19.3 0.00 0.00 0.00 59 1022.1
20260904170004 22 133 17.7 33.8 0.00 0.00 0.00 60 1022.1
20260904165504 22 161 14.5 30.6 0.00 0.00 0.00 59 1022.1
20260904165003 22 178 9.7 27.4 0.00 0.00 0.00 60 1022.1
20260904164503 22 244 4.8 29.0 0.00 0.00 0.00 60 1022.0
20260904164003 22 130 11.3 32.2 0.00 0.00 0.00 61 1021.8
20260904163504 22 169 4.8 25.7 0.00 0.00 0.00 61 1021.8
20260904163004 22 139 22.5 25.7 0.00 0.00 0.00 62 1021.7
20260904162504 22 132 24.1 30.6 0.00 0.00 0.00 63 1021.7
20260904162003 22 134 4.8 19.3 0.00 0.00 0.00 62 1021.8
20260904161504 21 163 14.5 22.5 0.00 0.00 0.00 64 1021.9
20260904161004 21 224 16.1 25.7 0.00 0.00 0.00 63 1021.7
20260904160503 21 159 32.2 46.7 0.00 0.00 0.00 64 1021.7
20260904160003 21 125 17.7 25.7 0.00 0.00 0.00 65 1021.7
20260904155504 21 162 20.9 32.2 0.00 0.00 0.00 66 1021.7
20260904155003 21 201 19.3 29.0 0.00 0.00 0.00 67 1021.6
20260904154503 21 146 14.5 35.4 0.00 0.00 0.00 68 1021.5
20260904154004 21 150 12.9 30.6 0.00 0.00 0.00 69 1021.6
20260904153504 21 140 4.8 20.9 0.00 0.00 0.00 69 1021.6
20260904153004 20 112 16.1 41.8 0.00 0.00 0.00 71 1021.6
20260904152504 20 208 17.7 20.9 0.00 0.00 0.00 71 1021.4
20260904152003 20 147 17.7 33.8 0.00 0.00 0.00 74 1021.5
20260904151503 20 104 11.3 27.4 0.00 0.00 0.00 76 1021.4
20260904151004 20 171 12.9 29.0 0.00 0.00 0.00 76 1021.5
20260904150504 20 103 17.7 29.0 0.00 0.00 0.00 77 1021.4
20260904150004 20 164 8.0 17.7 0.00 0.00 0.00 78 1021.1
20260904145504 20 181 8.0 29.0 0.00 0.00 0.00 78 1021.5
20260904145004 20 144 14.5 20.9 0.00 0.00 0.00 79 1021.1
20260904144504 19 130 9.7 32.2 0.00 0.00 0.00 79 1021.3
20260904144004 19 143 16.1 32.2 0.00 0.00 0.00 79 1021.4
20260904143504 18 131 22.5 30.6 0.00 0.00 0.00 80 1021.0
20260904143004 18 117 14.5 32.2 0.00 0.00 0.00 81 1021.3
20260904142004 18 214 6.4 17.7 0.00 0.00 0.00 82 1021.1
20260904141504 18 135 14.5 17.7 0.00 0.00 0.00 83 1021.0
20260904141003 18 167 6.4 11.3 0.00 0.00 0.00 84 1021.0
20260904140503 17 160 9.7 12.9 0.00 0.00 0.00 83 1020.8
20260904140004 17 137 8.0 14.5 0.00 0.00 0.00 83 1020.8
20260904135503 17 92 12.9 17.7 0.00 0.00 0.00 83 1020.7
20260904135003 17 186 4.8 11.3 0.00 0.00 0.00 82 1020.8
20260904134504 17 108 6.4 9.7 0.00 0.00 0.00 83 1020.8
20260904134003 17 94 8.0 8.0 0.00 0.00 0.00 82 1020.8
20260904133503 17 120 3.2 4.8 0.00 0.00 0.00 84 1020.8
20260904133003 16 76 4.8 4.8 0.00 0.00 0.00 85 1020.7
20260904132504 16 102 3.2 3.2 0.00 0.00 0.00 87 1020.7
20260904132004 15 120 3.2 3.2 0.00 0.00 0.00 88 1020.5
20260904131504 15 93 3.2 4.8 0.00 0.00 0.00 88 1020.5
20260904131003 15 269 0.0 3.2 0.00 0.00 0.00 88 1020.4
20260904130503 15 319 3.2 4.8 0.00 0.00 0.00 88 1020.3
20260904130004 15 351 0.0 3.2 0.00 0.00 0.00 88 1020.3
20260904125504 15 241 0.0 0.0 0.00 0.00 0.00 87 1020.3
20260904125004 15 176 3.2 3.2 0.00 0.00 0.00 86 1020.2
20260904124504 16 172 3.2 6.4 0.00 0.00 0.00 85 1020.2
20260904124003 16 138 6.4 12.9 0.00 0.00 0.00 85 1020.2
20260904123503 16 97 4.8 6.4 0.00 0.00 0.00 84 1020.2
20260904123004 16 91 9.7 17.7 0.00 0.00 0.00 84 1020.1
20260904122504 16 125 6.4 11.3 0.00 0.00 0.00 83 1020.2
20260904122004 16 115 6.4 9.7 0.00 0.00 0.00 82 1020.1
20260904121504 16 105 4.8 9.7 0.00 0.00 0.00 82 1020.1
20260904121003 16 109 3.2 6.4 0.00 0.00 0.00 81 1020.0
20260904120503 16 111 6.4 8.0 0.00 0.00 0.00 81 1019.9
20260904120004 16 102 6.4 8.0 0.00 0.00 0.00 80 1019.9
20260904114504 17 129 12.9 16.1 0.00 0.00 0.00 78 1020.1
20260904114004 17 167 3.2 4.8 0.00 0.00 0.00 76 1020.1
20260904113504 17 149 4.8 4.8 0.00 0.00 0.00 76 1020.0
20260904113003 17 189 9.7 14.5 0.00 0.00 0.00 75 1020.1
20260904112504 17 199 14.5 20.9 0.00 0.00 0.00 74 1020.2
20260904112004 17 185 4.8 9.7 0.00 0.00 0.00 74 1019.9
20260904111503 17 205 12.9 14.5 0.00 0.00 0.00 75 1020.0
20260904111003 17 147 6.4 12.9 0.00 0.00 0.00 74 1020.1
20260904110504 17 155 8.0 17.7 0.00 0.00 0.00 74 1019.8
20260904104504 17 166 17.7 19.3 0.00 0.00 0.00 73 1019.7
20260904104004 17 182 4.8 16.1 0.00 0.00 0.00 73 1019.6
20260904103504 18 144 16.1 19.3 0.00 0.00 0.00 73 1019.5
20260904103003 18 145 14.5 17.7 0.00 0.00 0.00 73 1019.8
20260904102503 18 180 11.3 12.9 0.00 0.00 0.00 73 1019.8
20260904101004 18 148 9.7 14.5 0.00 0.00 0.00 70 1019.6
20260904100504 18 194 16.1 24.1 0.00 0.00 0.00 69 1019.6
20260904100005 18 166 6.4 11.3 0.00 0.00 0.00 68 1019.6
20260904095503 18 134 6.4 9.7 0.00 0.00 0.00 68 1019.6
20260904095003 18 204 6.4 20.9 0.00 0.00 0.00 68 1019.4
20260904094504 18 116 8.0 11.3 0.00 0.00 0.00 68 1019.4
20260904094003 18 162 8.0 8.0 0.00 0.00 0.00 68 1019.4
20260904093504 18 168 9.7 9.7 0.00 0.00 0.00 69 1019.4
20260904093004 18 158 8.0 9.7 0.00 0.00 0.00 69 1019.7
20260904092503 18 147 9.7 17.7 0.00 0.00 0.00 68 1019.7
20260904092004 18 184 8.0 8.0 0.00 0.00 0.00 68 1019.5
20260904091504 18 194 8.0 16.1 0.00 0.00 0.00 68 1019.6
20260904091004 18 120 9.7 9.7 0.00 0.00 0.00 69 1019.6
20260904090504 18 151 3.2 6.4 0.00 0.00 0.00 68 1019.5
20260904090004 18 184 4.8 4.8 0.00 0.00 0.00 67 1019.5
20260904085503 18 113 6.4 6.4 0.00 0.00 0.00 68 1019.6
20260904085003 18 128 6.4 6.4 0.00 0.00 0.00 67 1019.7
20260904084503 18 149 3.2 8.0 0.00 0.00 0.00 66 1019.5
20260904084003 18 152 8.0 8.0 0.00 0.00 0.00 64 1019.6
20260904083503 19 139 4.8 6.4 0.00 0.00 0.00 63 1019.8
20260904081503 19 212 3.2 8.0 0.00 0.00 0.00 57 1019.8
20260904081003 20 198 9.7 11.3 0.00 0.00 0.00 55 1019.9
20260904080503 19 219 6.4 11.3 0.00 0.00 0.00 55 1019.7
20260904080004 19 167 3.2 6.4 0.00 0.00 0.00 55 1019.8
20260904075504 19 186 8.0 12.9 0.00 0.00 0.00 55 1019.8
20260904075004 19 236 4.8 8.0 0.00 0.00 0.00 56 1019.8
20260904074504 19 207 3.2 8.0 0.00 0.00 0.00 56 1019.8
20260904074003 19 185 4.8 6.4 0.00 0.00 0.00 57 1019.9
20260904073504 19 218 11.3 11.3 0.00 0.00 0.00 58 1019.9
20260904073003 19 194 4.8 8.0 0.00 0.00 0.00 58 1020.0
20260904072503 19 264 4.8 4.8 0.00 0.00 0.00 58 1019.9
20260904072004 19 195 3.2 3.2 0.00 0.00 0.00 58 1019.9
20260904071503 19 246 0.0 3.2 0.00 0.00 0.00 57 1019.8
20260904071003 19 144 3.2 3.2 0.00 0.00 0.00 57 1019.8
20260904070504 20 234 4.8 4.8 0.00 0.00 0.00 53 1019.8
20260904070004 20 276 6.4 8.0 0.00 0.00 0.00 53 1019.9
20260904065503 20 256 6.4 6.4 0.00 0.00 0.00 51 1019.9
20260904065004 20 221 4.8 9.7 0.00 0.00 0.00 51 1019.6
20260904063003 20 208 8.0 8.0 0.00 0.00 0.00 50 1020.0
20260904062503 20 190 8.0 11.3 0.00 0.00 0.00 50 1019.8
20260904062004 20 195 9.7 12.9 0.00 0.00 0.00 50 1019.8
20260904061503 20 184 4.8 11.3 0.00 0.00 0.00 50 1019.8
20260904061004 20 203 8.0 14.5 0.00 0.00 0.00 49 1019.8
20260904060504 20 222 11.3 12.9 0.00 0.00 0.00 50 1019.9
20260904060003 20 207 11.3 12.9 0.00 0.00 0.00 52 1019.8
20260904055503 20 226 11.3 11.3 0.00 0.00 0.00 56 1019.8
20260904055003 20 218 6.4 12.9 0.00 0.00 0.00 61 1019.8
20260904054504 20 204 4.8 12.9 0.00 0.00 0.00 62 1019.7
20260904054004 21 233 6.4 12.9 0.00 0.00 0.00 62 1019.8
20260904053504 21 186 6.4 16.1 0.00 0.00 0.00 62 1019.6
20260904053004 21 260 12.9 27.4 0.00 0.00 0.00 62 1019.8
20260904052504 21 187 22.5 24.1 0.00 0.00 0.00 62 1019.6
20260904052004 21 193 11.3 25.7 0.00 0.00 0.00 62 1019.7
20260904044504 21 216 11.3 12.9 0.00 0.00 0.00 57 1019.9
20260904044004 21 211 8.0 8.0 0.00 0.00 0.00 55 1019.7
20260904043504 21 185 8.0 11.3 0.00 0.00 0.00 55 1019.8
20260904043004 21 115 4.8 12.9 0.00 0.00 0.00 54 1019.9
20260904042503 21 126 16.1 16.1 0.00 0.00 0.00 54 1019.7
20260904042004 22 183 8.0 16.1 0.00 0.00 0.00 53 1019.7
20260904041504 22 209 16.1 16.1 0.00 0.00 0.00 53 1019.7
20260904041004 22 180 4.8 20.9 0.00 0.00 0.00 53 1019.5
20260904040504 22 177 11.3 17.7 0.00 0.00 0.00 52 1019.5
20260904040004 22 285 8.0 17.7 0.00 0.00 0.00 51 1019.5
20260904035503 22 220 9.7 20.9 0.00 0.00 0.00 51 1019.6
20260904033503 22 189 8.0 19.3 0.00 0.00 0.00 49 1019.3
20260904033004 22 204 16.1 22.5 0.00 0.00 0.00 49 1019.6
20260904032504 22 191 16.1 29.0 0.00 0.00 0.00 49 1019.6
20260904032003 22 211 24.1 27.4 0.00 0.00 0.00 48 1019.3
20260904031503 22 180 20.9 29.0 0.00 0.00 0.00 49 1019.4
20260904031004 22 226 16.1 25.7 0.00 0.00 0.00 49 1019.3
20260904030503 22 191 14.5 19.3 0.00 0.00 0.00 49 1019.3
20260904030004 22 185 12.9 17.7 0.00 0.00 0.00 49 1019.5
20260904025504 22 218 14.5 24.1 0.00 0.00 0.00 49 1019.5
20260904025004 22 199 12.9 14.5 0.00 0.00 0.00 50 1019.3
20260904024504 22 199 9.7 20.9 0.00 0.00 0.00 50 1019.2
20260904024004 22 197 14.5 24.1 0.00 0.00 0.00 50 1019.3
20260904023504 22 218 12.9 22.5 0.00 0.00 0.00 50 1019.3
20260904023004 22 218 9.7 17.7 0.00 0.00 0.00 51 1019.0
20260904022504 22 217 17.7 17.7 0.00 0.00 0.00 51 1019.3
20260904022003 22 188 8.0 14.5 0.00 0.00 0.00 51 1019.2
20260904021503 22 184 12.9 16.1 0.00 0.00 0.00 51 1019.0
20260904021004 22 175 6.4 19.3 0.00 0.00 0.00 50 1019.2
20260904015004 23 198 8.0 19.3 0.00 0.00 0.00 48 1019.0
20260904014504 23 206 25.7 27.4 0.00 0.00 0.00 47 1019.0
20260904014004 23 213 19.3 33.8 0.00 0.00 0.00 46 1019.0
20260904012004 24 206 14.5 17.7 0.00 0.00 0.00 45 1019.0
20260904011504 24 163 8.0 27.4 0.00 0.00 0.00 45 1018.8
20260904011004 24 182 6.4 30.6 0.00 0.00 0.00 45 1018.9
20260904010504 24 198 14.5 29.0 0.00 0.00 0.00 45 1019.2
20260904010004 24 200 32.2 40.2 0.00 0.00 0.00 44 1019.0
20260904005504 24 209 27.4 35.4 0.00 0.00 0.00 43 1019.0
20260904005003 24 180 20.9 40.2 0.00 0.00 0.00 44 1019.2
20260904004503 25 203 12.9 32.2 0.00 0.00 0.00 42 1019.0
20260904004003 25 167 9.7 22.5 0.00 0.00 0.00 45 1019.3
20260904003504 25 181 19.3 24.1 0.00 0.00 0.00 45 1019.2
20260904003004 25 185 16.1 41.8 0.00 0.00 0.00 45 1019.4
20260904002504 25 228 25.7 25.7 0.00 0.00 0.00 44 1019.2
20260904002004 25 218 17.7 41.8 0.00 0.00 0.00 45 1019.4
20260904001504 25 190 12.9 22.5 0.00 0.00 0.00 43 1019.3
20260904001004 25 205 4.8 25.7 0.00 0.00 0.00 43 1019.3